Location: Krakow
(50.0830°N, 19.9170°E)
Time: 07:46:18
(UTC+02:00)

A-11 Canister half - Pass Details

Date: 03 June 2024
Orbit: 1515 x 1684 km, 47.2° (Epoch: 23 May)

Event Time Altitude Azimuth Distance (km) Brightness Sun altitude
Rises 02:48:06 0° 268° (W) 4,798 11.3 -12.1°
Reaches altitude 10° 02:51:14 10° 267° (W) 3,790 10.7 -11.8°
Maximum altitude 03:00:46 76° 184° (S) 1,590 9.0 -11.0°
Drops below altitude 10° 03:10:02 10° 101° (E) 3,684 11.3 -10.2°
Sets 03:13:02 0° 100° (E) 4,659 11.9 -9.9°
